Regional Weather Roundup
Issued by NWS Charleston, SC

Current Version | Previous Version | Graphics & Text | Print | Product List | Glossary On
Versions: 1 2 3 4 5 6 7 8 9 10 11 12 13 14 15 16 17 18 19 20 21 22 23 24 25 26 27 28 29 30 31 32 33 34 35 36 37 38 39 40 41 42 43 44 45 46 47 48 49 50
000
ASUS42 KCHS 302028
RWRCHS

REGIONAL WEATHER ROUNDUP
NATIONAL WEATHER SERVICE CHARLESTON SC
400 PM EDT MON MAY 30 2016

NOTE: "FAIR" INDICATES FEW OR NO CLOUDS BELOW 12,000 FEET WITH NO
SIGNIFICANT WEATHER AND/OR OBSTRUCTIONS TO VISIBILITY.

NOT ALL STATIONS ARE QUALITY CONTROLLED. USE DATA WITH CAUTION...
ESPECIALLY DEWPOINT OBSERVATIONS.

SCZ027-030-031-034>040-042>050-302100-
...SOUTHEAST SOUTH CAROLINA...

CITY           SKY/WX    TMP DP  RH WIND       PRES   REMARKS
N CHARLESTON   CLOUDY    75  70  84 NW9       29.88F
WATERFRONT PRK   N/A     75  70  84 W7        29.86F
MOUNT PLEASANT MOCLDY    75  72  88 W7        29.87F
JOHNS ISLAND   CLOUDY    75  70  83 W10       29.88S
PINOPOLIS      NOT AVBL
MONCKS CORNER  LGT RAIN  70  68  94 CALM      29.87S
SUMMERVILLE    CLOUDY    75  72  88 NW8       29.88F
BEAUFORT MCAS  LGT RAIN  74  70  87 N12G21    29.90F
BEAUFORT ARPT  LGT RAIN  73  68  83 NW8       29.90S
HILTON HEAD IS PTSUNNY   82  72  69 N16       29.90F
WALTERBORO     CLOUDY    77  77 100 NW8       29.91S
ALLENDALE      CLOUDY    84  68  58 VRB6G13   29.88F

...SOUTHERN MIDLANDS AND PEE DEE...

CITY           SKY/WX    TMP DP  RH WIND       PRES   REMARKS
GEORGETOWN     CLOUDY    75  70  83 SE10      29.87S
KINGSTREE      DRIZZLE   72  70  94 NE3       29.86F
ORANGEBURG     RAIN      74  70  87 CALM      29.90F FOG
BARNWELL       FAIR      84  72  65 N12       29.89F
AIKEN          MOCLDY    82  64  54 N9        29.94F
MANNING        RAIN      72  70  94 NW5       29.87F
COLUMBIA       PTSUNNY   85  66  53 N10       29.88F
SUMTER         CLOUDY    76  71  84 N8        29.87F
FLORENCE       CLOUDY    79  71  76 N3        29.87F
MYRTLE BEACH   PTSUNNY   79  66  65 S9        29.90F
N MYRTLE BEACH MOSUNNY   79  71  76 SE8       29.88F

$$

GAZ063-065-086>088-099>101-113>116-118-119-134>141-150-302100-
...SOUTHEAST GEORGIA...

CITY           SKY/WX    TMP DP  RH WIND       PRES   REMARKS
SAVANNAH ARPT  PTSUNNY   86  68  54 NW12      29.89F
HUNTER AAF     MOSUNNY   87  72  61 VRB7      29.86F HX  93
FORT STEWART   SUNNY     89  64  42 NW8G20    29.87F HX  90
STATESBORO     PTSUNNY   84  70  63 N9        29.90F
SYLVANIA       MOCLDY    86  69  56 N12       29.91F HX  90
CLAXTON        FAIR      89  66  47 NW9G16    29.90F HX  91

...CSRA...CENTRAL AND FAR SOUTHEAST GEORGIA...

CITY           SKY/WX    TMP DP  RH WIND       PRES   REMARKS
THOMSON        MOSUNNY   90  67  47 E6        29.96F HX  93
AUGUSTA-BUSH   MOSUNNY   87  64  46 N13       29.90F
AUGUSTA-DANIEL MOSUNNY   88  64  44 NW9       29.92F
SWAINSBORO     FAIR      90  63  40 NW9       29.92F HX  90
VIDALIA        SUNNY     90  59  35 N9        29.91F
EASTMAN        FAIR      92  60  35 CALM      29.94F HX  91
HAZLEHURST     FAIR      92  60  33 CALM      29.90F HX  91
ALMA           MOSUNNY   92  62  36 NW7       29.91F HX  92
WAYCROSS       MOSUNNY   92  63  38 NW6G17    29.89F HX  93
JESUP          FAIR      88  59  37 NW7G16    29.89F
BAXLEY         FAIR      91  61  35 N12       29.90F HX  91
BRUNSWICK      MOSUNNY   95  63  34 NW3       29.89F HX  96
SAINT SIMONS   MOSUNNY   90  62  39 W9        29.89F HX  90

$$

SCZ027-028-034-036>038-045-046-048>050-GAZ119-141-302100-
...LAKE AND SUPPLEMENTAL COASTAL OBSERVATIONS...

STATION/POSITION TIME  TEMP    WIND        PRES    WAVE   SWELL
                       AIR SEA DIR/SP/G            HT/PER HT/PER/DIR
                 (UTC) (F)     (DEG/KT/KT) (MB)    (FT/S) (FT/S/D)
WINYAH BAY       1945   75     150/ 11     1010.0F
LAKE MURRAY      1900   81      30/  1/  6 1012.2F
ACE BASIN NERRS  1900   77     340/  4     1013.0S
FORT PULASKI     2000   82 76  300/ 12/ 15 1012.3F
SAPELO ISLAND    2000   89     280/  8     1012.0F

$$

ANZ835-935-AMZ111-154-330-350-352-354-370-450-454-472-302100-
...C-MAN AND BUOY OBSERVATIONS...

STATION/POSITION TIME  TEMP    WIND        PRES    WAVE   SWELL
                       AIR SEA DIR/SP/G            HT/PER HT/PER/DIR
                 (UTC) (F)     (DEG/KT/KT) (MB)    (FT/S) (FT/S/D)
BUOY 41004       1950   74 78  230/ 12/ 16 1011.7F   4/ 8   3/ 8
BUOY 41008       1950   80 78   30/  2/  4 1012.2F   2/ 9   2/110/ 9
FOLLY BEACH CMAN 2000   76     290/  7/ 10 1011.9F
CAPERS NEARSHORE 2008   74 76  270/ 10/ 14 1011.2F
FRIPP NEARSHORE  2008   76 76  350/ 16/ 19 1011.3F


STATION/POSITION TIME  TEMP    WIND        PRES    WAVE   SWELL
                       AIR SEA DIR/SP/G            HT/PER HT/PER/DIR
                 (UTC) (F)     (DEG/KT/KT) (MB)    (FT/S) (FT/S/D)
5E ST. MARYS GA  2001      81                N/A     2/ 8
FRYING PAN BUOY  2000   78 78  170/ 12/ 16 1011.9F
BUOY 41025       1850   74 80  160/ 17/ 23 1015.0    6/ 7   2/170/13
CAPE LOOKOUT NC  2000   74      50/  4/  5 1013.5F
BUOY 41002       1950   76 76  180/ 10/ 12 1014.6F   5/ 8   5/ 90/ 8
BUOY 41010       1920   80 80  200/ 10/ 12 1014.7F
ST AUGUSTINE FL  2000   80 82  140/ 11/ 12 1013.7F


$$



USA.gov is the U.S. government's official web portal to all federal, state and local government web resources and services.